TimeMDT,TemperatureF,Dew PointF,Humidity,Sea Level PressureIn,VisibilityMPH,Wind Direction,Wind SpeedMPH,Gust SpeedMPH,PrecipitationIn,Events,Conditions,WindDirDegrees,DateUTC
12:53 AM,19.9,9.0,62,30.36,10.0,NW,8.1,-,N/A,,Overcast,310,2013-03-23 06:53:00
1:53 AM,18.0,9.0,68,30.37,10.0,WNW,8.1,-,N/A,,Clear,290,2013-03-23 07:53:00
2:53 AM,16.0,8.1,71,30.39,10.0,West,8.1,-,N/A,,Clear,260,2013-03-23 08:53:00
3:53 AM,14.0,6.1,71,30.39,10.0,West,5.8,-,N/A,,Clear,260,2013-03-23 09:53:00
4:53 AM,12.9,6.1,74,30.40,10.0,West,8.1,-,N/A,,Mostly Cloudy,280,2013-03-23 10:53:00
5:53 AM,12.9,7.0,77,30.42,10.0,West,5.8,-,N/A,,Overcast,260,2013-03-23 11:53:00
6:53 AM,12.9,6.1,74,30.44,10.0,Calm,Calm,-,N/A,,Mostly Cloudy,0,2013-03-23 12:53:00
7:53 AM,12.9,5.0,71,30.45,10.0,Calm,Calm,-,N/A,,Clear,0,2013-03-23 13:53:00
8:53 AM,16.0,7.0,68,30.46,10.0,Calm,Calm,-,N/A,,Overcast,0,2013-03-23 14:53:00
9:53 AM,19.0,7.0,59,30.46,10.0,Calm,Calm,-,N/A,,Overcast,0,2013-03-23 15:53:00
10:53 AM,23.0,7.0,50,30.44,10.0,Calm,Calm,-,N/A,,Scattered Clouds,0,2013-03-23 16:53:00
11:53 AM,28.0,1.9,33,30.42,10.0,Calm,Calm,-,N/A,,Clear,0,2013-03-23 17:53:00
12:53 PM,30.0,-0.0,28,30.38,10.0,ENE,6.9,-,N/A,,Clear,60,2013-03-23 18:53:00
1:53 PM,30.0,-0.9,27,30.37,10.0,ENE,4.6,-,N/A,,Scattered Clouds,70,2013-03-23 19:53:00
2:53 PM,30.9,1.0,28,30.35,10.0,WSW,3.5,-,N/A,,Mostly Cloudy,240,2013-03-23 20:53:00
3:53 PM,28.9,10.0,45,30.37,10.0,SW,8.1,-,N/A,,Mostly Cloudy,220,2013-03-23 21:53:00
4:53 PM,28.0,14.0,56,30.38,10.0,SW,9.2,-,N/A,,Overcast,230,2013-03-23 22:53:00
5:53 PM,28.0,15.1,58,30.37,10.0,WSW,5.8,-,N/A,,Clear,240,2013-03-23 23:53:00
6:53 PM,27.0,12.9,56,30.38,10.0,West,5.8,-,N/A,,Mostly Cloudy,270,2013-03-24 00:53:00
7:48 PM,24.8,19.4,80,30.18,1.8,West,15.0,-,0.00,Snow,Light Snow,270,2013-03-24 01:48:00
7:53 PM,24.1,19.9,84,30.40,1.5,West,13.8,-,0.00,Snow,Light Snow,260,2013-03-24 01:53:00
8:01 PM,24.8,19.4,80,30.18,3.0,WSW,10.4,-,0.00,Snow,Light Snow,250,2013-03-24 02:01:00
8:53 PM,24.1,17.1,75,30.40,10.0,WSW,8.1,-,0.00,,Overcast,250,2013-03-24 02:53:00
9:53 PM,23.0,15.1,72,30.41,10.0,SSW,5.8,-,N/A,,Mostly Cloudy,200,2013-03-24 03:53:00
10:53 PM,21.0,12.9,71,30.41,10.0,Calm,Calm,-,N/A,,Partly Cloudy,0,2013-03-24 04:53:00
11:53 PM,19.0,12.9,77,30.41,10.0,WSW,3.5,-,N/A,,Clear,240,2013-03-24 05:53:00